| time (UTC) | temp C | wind direction | speed KPH | gust KPH | rain 1hr cm | rain 24hr cm | rain mn cm | humidity % | barometer mb |
| 20260906142518 | 22 | 110 | 3.2 | 11.3 | 0.00 | 0.00 | 0.00 | 85 | 1019.4 |
| 20260906142008 | 21 | 105 | 3.2 | 11.3 | 0.00 | 0.00 | 0.00 | 86 | 1019.4 |
| 20260906141532 | 21 | 24 | 4.8 | 8.0 | 0.00 | 0.00 | 0.00 | 86 | 1019.4 |
| 20260906141014 | 21 | 322 | 3.2 | 12.9 | 0.00 | 0.00 | 0.00 | 86 | 1019.5 |
| 20260906140510 | 21 | 102 | 3.2 | 12.9 | 0.00 | 0.00 | 0.00 | 87 | 1019.6 |
| 20260906140035 | 21 | 42 | 1.6 | 9.7 | 0.00 | 0.00 | 0.00 | 88 | 1019.6 |
| 20260906135512 | 20 | 120 | 1.6 | 8.0 | 0.00 | 0.00 | 0.00 | 91 | 1019.6 |
| 20260906135004 | 20 | 113 | 3.2 | 9.7 | 0.00 | 0.00 | 0.00 | 90 | 1019.7 |
| 20260906134527 | 20 | 53 | 3.2 | 9.7 | 0.00 | 0.00 | 0.00 | 90 | 1019.8 |
| 20260906134008 | 20 | 38 | 3.2 | 9.7 | 0.00 | 0.00 | 0.00 | 90 | 1019.8 |
| 20260906133515 | 19 | 44 | 3.2 | 9.7 | 0.00 | 0.00 | 0.00 | 90 | 1019.8 |
| 20260906133031 | 19 | 60 | 3.2 | 9.7 | 0.00 | 0.00 | 0.00 | 90 | 1019.7 |
| 20260906132507 | 19 | 56 | 4.8 | 8.0 | 0.00 | 0.00 | 0.00 | 90 | 1019.6 |
| 20260906132013 | 19 | 343 | 1.6 | 6.4 | 0.00 | 0.00 | 0.00 | 91 | 1019.7 |
| 20260906131524 | 19 | 248 | 1.6 | 8.0 | 0.00 | 0.00 | 0.00 | 91 | 1019.7 |
| 20260906131007 | 18 | 11 | 1.6 | 8.0 | 0.00 | 0.00 | 0.00 | 91 | 1019.7 |
| 20260906130518 | 18 | 53 | 3.2 | 6.4 | 0.00 | 0.00 | 0.00 | 92 | 1019.8 |
| 20260906130024 | 18 | 72 | 3.2 | 6.4 | 0.00 | 0.00 | 0.00 | 92 | 1019.9 |
| 20260906125514 | 18 | 40 | 1.6 | 6.4 | 0.00 | 0.00 | 0.00 | 93 | 1019.8 |
| 20260906125014 | 18 | 55 | 1.6 | 3.2 | 0.00 | 0.00 | 0.00 | 93 | 1019.7 |
| 20260906124522 | 17 | 16 | 1.6 | 4.8 | 0.00 | 0.00 | 0.00 | 93 | 1019.6 |
| 20260906124014 | 17 | 42 | 0.0 | 4.8 | 0.00 | 0.00 | 0.00 | 93 | 1019.6 |
| 20260906123515 | 17 | 24 | 1.6 | 6.4 | 0.00 | 0.00 | 0.00 | 93 | 1019.6 |
| 20260906123020 | 17 | 28 | 0.0 | 6.4 | 0.00 | 0.00 | 0.00 | 93 | 1019.5 |
| 20260906122515 | 17 | 342 | 1.6 | 3.2 | 0.00 | 0.00 | 0.00 | 93 | 1019.4 |
| 20260906122010 | 17 | 9 | 0.0 | 3.2 | 0.00 | 0.00 | 0.00 | 93 | 1019.3 |
| 20260906121537 | 17 | 19 | 0.0 | 3.2 | 0.00 | 0.00 | 0.00 | 93 | 1019.2 |
| 20260906121019 | 17 | 342 | 1.6 | 3.2 | 0.00 | 0.00 | 0.00 | 93 | 1019.1 |
| 20260906120510 | 17 | 352 | 0.0 | 3.2 | 0.00 | 0.00 | 0.00 | 93 | 1019.1 |
| 20260906120034 | 17 | 352 | 0.0 | 3.2 | 0.00 | 0.00 | 0.00 | 93 | 1019.0 |
| 20260906115512 | 17 | 40 | 0.0 | 3.2 | 0.00 | 0.00 | 0.00 | 93 | 1018.9 |
| 20260906115006 | 17 | 40 | 0.0 | 3.2 | 0.00 | 0.00 | 0.00 | 93 | 1018.8 |
| 20260906114536 | 17 | 34 | 0.0 | 3.2 | 0.00 | 0.00 | 0.00 | 93 | 1018.8 |
| 20260906114012 | 17 | 32 | 0.0 | 3.2 | 0.00 | 0.00 | 0.00 | 93 | 1018.8 |
| 20260906113518 | 17 | 352 | 0.0 | 3.2 | 0.00 | 0.00 | 0.00 | 93 | 1018.7 |
| 20260906113029 | 17 | 33 | 0.0 | 4.8 | 0.00 | 0.00 | 0.00 | 93 | 1018.7 |
| 20260906112515 | 17 | 33 | 0.0 | 4.8 | 0.00 | 0.00 | 0.00 | 93 | 1018.7 |
| 20260906112017 | 17 | 54 | 0.0 | 4.8 | 0.00 | 0.00 | 0.00 | 93 | 1018.6 |
| 20260906111529 | 17 | 40 | 1.6 | 4.8 | 0.00 | 0.00 | 0.00 | 93 | 1018.5 |
| 20260906111008 | 17 | 27 | 1.6 | 4.8 | 0.00 | 0.00 | 0.00 | 93 | 1018.5 |
| 20260906110515 | 17 | 50 | 1.6 | 6.4 | 0.00 | 0.00 | 0.00 | 93 | 1018.5 |
| 20260906110025 | 17 | 30 | 0.0 | 6.4 | 0.00 | 0.00 | 0.00 | 93 | 1018.4 |
| 20260906105516 | 17 | 57 | 3.2 | 8.0 | 0.00 | 0.00 | 0.00 | 93 | 1018.3 |
| 20260906105015 | 17 | 43 | 1.6 | 8.0 | 0.00 | 0.00 | 0.00 | 93 | 1018.2 |
| 20260906104520 | 17 | 46 | 1.6 | 6.4 | 0.00 | 0.00 | 0.00 | 93 | 1018.2 |
| 20260906104016 | 17 | 43 | 1.6 | 6.4 | 0.00 | 0.00 | 0.00 | 93 | 1018.2 |
| 20260906103512 | 17 | 16 | 1.6 | 8.0 | 0.00 | 0.00 | 0.00 | 93 | 1018.1 |
| 20260906103017 | 17 | 40 | 3.2 | 8.0 | 0.00 | 0.00 | 0.00 | 93 | 1018.2 |
| 20260906102515 | 17 | 68 | 1.6 | 4.8 | 0.00 | 0.00 | 0.00 | 93 | 1018.2 |
| 20260906102014 | 17 | 17 | 1.6 | 3.2 | 0.00 | 0.00 | 0.00 | 93 | 1018.3 |
| 20260906101535 | 17 | 314 | 0.0 | 4.8 | 0.00 | 0.00 | 0.00 | 93 | 1018.4 |
| 20260906101013 | 17 | 33 | 1.6 | 4.8 | 0.00 | 0.00 | 0.00 | 92 | 1018.3 |
| 20260906100515 | 17 | 34 | 1.6 | 3.2 | 0.00 | 0.00 | 0.00 | 92 | 1018.3 |
| 20260906100035 | 17 | 5 | 0.0 | 3.2 | 0.00 | 0.00 | 0.00 | 92 | 1018.4 |
| 20260906095514 | 18 | 34 | 0.0 | 3.2 | 0.00 | 0.00 | 0.00 | 92 | 1018.3 |
| 20260906095008 | 18 | 9 | 0.0 | 4.8 | 0.00 | 0.00 | 0.00 | 92 | 1018.3 |
| 20260906094532 | 18 | 27 | 1.6 | 4.8 | 0.00 | 0.00 | 0.00 | 93 | 1018.3 |
| 20260906094014 | 18 | 44 | 1.6 | 3.2 | 0.00 | 0.00 | 0.00 | 92 | 1018.3 |
| 20260906093516 | 18 | 32 | 1.6 | 3.2 | 0.00 | 0.00 | 0.00 | 92 | 1018.2 |
| 20260906093033 | 18 | 352 | 1.6 | 1.6 | 0.00 | 0.00 | 0.00 | 92 | 1018.1 |
| 20260906092516 | 18 | 344 | 0.0 | 4.8 | 0.00 | 0.00 | 0.00 | 92 | 1018.0 |
| 20260906092018 | 18 | 36 | 1.6 | 4.8 | 0.00 | 0.00 | 0.00 | 92 | 1018.0 |
| 20260906091530 | 18 | 32 | 1.6 | 3.2 | 0.00 | 0.00 | 0.00 | 92 | 1018.0 |
| 20260906091007 | 18 | 41 | 0.0 | 6.4 | 0.00 | 0.00 | 0.00 | 92 | 1018.0 |
| 20260906090519 | 18 | 17 | 1.6 | 6.4 | 0.00 | 0.00 | 0.00 | 92 | 1018.0 |
| 20260906090030 | 18 | 60 | 1.6 | 4.8 | 0.00 | 0.00 | 0.00 | 92 | 1018.0 |
| 20260906085517 | 18 | 52 | 1.6 | 4.8 | 0.00 | 0.00 | 0.00 | 92 | 1018.0 |
| 20260906085014 | 18 | 31 | 1.6 | 4.8 | 0.00 | 0.00 | 0.00 | 92 | 1018.0 |
| 20260906084524 | 18 | 49 | 1.6 | 8.0 | 0.00 | 0.00 | 0.00 | 92 | 1018.0 |
| 20260906084021 | 18 | 51 | 1.6 | 8.0 | 0.00 | 0.00 | 0.00 | 92 | 1018.1 |
| 20260906083515 | 18 | 28 | 1.6 | 9.7 | 0.00 | 0.00 | 0.00 | 92 | 1018.0 |
| 20260906083019 | 18 | 78 | 1.6 | 9.7 | 0.00 | 0.00 | 0.00 | 92 | 1018.0 |
| 20260906082515 | 18 | 42 | 3.2 | 9.7 | 0.00 | 0.00 | 0.00 | 92 | 1018.0 |
| 20260906082014 | 18 | 55 | 1.6 | 9.7 | 0.00 | 0.00 | 0.00 | 92 | 1018.0 |
| 20260906081521 | 18 | 11 | 1.6 | 9.7 | 0.00 | 0.00 | 0.00 | 93 | 1018.0 |
| 20260906081003 | 18 | 42 | 0.0 | 9.7 | 0.00 | 0.00 | 0.00 | 93 | 1018.0 |
| 20260906080514 | 18 | 67 | 0.0 | 4.8 | 0.00 | 0.00 | 0.00 | 93 | 1018.1 |
| 20260906080019 | 18 | 48 | 1.6 | 4.8 | 0.00 | 0.00 | 0.00 | 93 | 1018.1 |
| 20260906075503 | 18 | 59 | 0.0 | 3.2 | 0.00 | 0.00 | 0.00 | 93 | 1018.1 |
| 20260906075008 | 18 | 66 | 0.0 | 3.2 | 0.00 | 0.00 | 0.00 | 93 | 1018.1 |
| 20260906074510 | 18 | 39 | 0.0 | 3.2 | 0.00 | 0.00 | 0.00 | 94 | 1018.0 |
| 20260906074003 | 18 | 64 | 0.0 | 3.2 | 0.00 | 0.00 | 0.00 | 94 | 1018.1 |
| 20260906073507 | 18 | 59 | 0.0 | 4.8 | 0.00 | 0.00 | 0.00 | 94 | 1018.2 |
| 20260906073008 | 18 | 26 | 0.0 | 4.8 | 0.00 | 0.00 | 0.00 | 94 | 1018.2 |
| 20260906072515 | 18 | 35 | 0.0 | 3.2 | 0.00 | 0.00 | 0.00 | 93 | 1018.2 |
| 20260906072006 | 18 | 75 | 1.6 | 3.2 | 0.00 | 0.00 | 0.00 | 93 | 1018.3 |
| 20260906071506 | 18 | 340 | 0.0 | 3.2 | 0.00 | 0.00 | 0.00 | 92 | 1018.2 |
| 20260906071012 | 18 | 339 | 0.0 | 3.2 | 0.00 | 0.00 | 0.00 | 92 | 1018.2 |
| 20260906070504 | 18 | 329 | 0.0 | 0.0 | 0.00 | 0.00 | 0.00 | 92 | 1018.3 |
| 20260906070005 | 18 | 329 | 0.0 | 0.0 | 0.00 | 0.00 | 0.00 | 92 | 1018.3 |
| 20260906065509 | 18 | 329 | 0.0 | 0.0 | 0.00 | 0.00 | 0.00 | 91 | 1018.4 |
| 20260906065004 | 18 | 329 | 0.0 | 3.2 | 0.00 | 0.00 | 0.00 | 91 | 1018.4 |
| 20260906064530 | 18 | 329 | 0.0 | 3.2 | 0.00 | 0.00 | 0.00 | 91 | 1018.6 |
| 20260906064007 | 18 | 329 | 0.0 | 3.2 | 0.00 | 0.00 | 0.00 | 91 | 1018.6 |
| 20260906063502 | 18 | 329 | 0.0 | 3.2 | 0.00 | 0.00 | 0.00 | 91 | 1018.6 |
| 20260906063023 | 18 | 329 | 0.0 | 3.2 | 0.00 | 0.00 | 0.00 | 91 | 1018.6 |
| 20260906062505 | 18 | 329 | 0.0 | 0.0 | 0.00 | 0.00 | 0.00 | 91 | 1018.5 |
| 20260906062004 | 19 | 329 | 0.0 | 0.0 | 0.00 | 0.00 | 0.00 | 90 | 1018.5 |
| 20260906061522 | 19 | 329 | 0.0 | 1.6 | 0.00 | 0.00 | 0.00 | 90 | 1018.5 |
| 20260906061007 | 19 | 329 | 0.0 | 1.6 | 0.00 | 0.00 | 0.00 | 90 | 1018.6 |
| 20260906060514 | 19 | 323 | 0.0 | 3.2 | 0.00 | 0.00 | 0.00 | 90 | 1018.5 |
| 20260906060021 | 19 | 323 | 1.6 | 3.2 | 0.00 | 0.00 | 0.00 | 90 | 1018.5 |
| 20260906055504 | 19 | 338 | 0.0 | 3.2 | 0.00 | 0.00 | 0.00 | 90 | 1018.5 |
| 20260906055011 | 20 | 313 | 1.6 | 3.2 | 0.00 | 0.00 | 0.00 | 90 | 1018.5 |
| 20260906054511 | 20 | 306 | 1.6 | 3.2 | 0.00 | 0.00 | 0.00 | 90 | 1018.4 |
| 20260906054016 | 20 | 336 | 1.6 | 3.2 | 0.00 | 0.00 | 0.00 | 90 | 1018.3 |
| 20260906053508 | 20 | 22 | 0.0 | 3.2 | 0.00 | 0.00 | 0.00 | 90 | 1018.2 |
| 20260906053010 | 20 | 38 | 0.0 | 3.2 | 0.00 | 0.00 | 0.00 | 90 | 1018.1 |
| 20260906052512 | 20 | 342 | 0.0 | 4.8 | 0.00 | 0.00 | 0.00 | 90 | 1018.1 |
| 20260906052011 | 20 | 22 | 0.0 | 4.8 | 0.00 | 0.00 | 0.00 | 90 | 1018.0 |
| 20260906051514 | 20 | 44 | 0.0 | 4.8 | 0.00 | 0.00 | 0.00 | 1018.0 | |
| 20260906051014 | 20 | 57 | 0.0 | 3.2 | 0.00 | 0.00 | 0.00 | 1018.1 | |
| 20260906050511 | 20 | 62 | 1.6 | 6.4 | 0.00 | 0.00 | 0.00 | 1018.1 | |
| 20260906050033 | 20 | 13 | 3.2 | 6.4 | 0.00 | 0.00 | 0.00 | 1018.1 | |
| 20260906045513 | 20 | 22 | 1.6 | 4.8 | 0.00 | 0.00 | 0.00 | 89 | 1018.1 |
| 20260906045004 | 20 | 9 | 0.0 | 3.2 | 0.00 | 0.00 | 0.00 | 89 | 1018.0 |
| 20260906044527 | 20 | 28 | 0.0 | 3.2 | 0.00 | 0.00 | 0.00 | 88 | 1017.9 |
| 20260906044010 | 20 | 63 | 0.0 | 4.8 | 0.00 | 0.00 | 0.00 | 88 | 1017.7 |
| 20260906043507 | 20 | 52 | 0.0 | 4.8 | 0.00 | 0.00 | 0.00 | 88 | 1017.6 |
| 20260906043030 | 21 | 93 | 0.0 | 4.8 | 0.00 | 0.00 | 0.00 | 88 | 1017.6 |
| 20260906042507 | 21 | 36 | 1.6 | 12.9 | 0.00 | 0.00 | 0.00 | 87 | 1017.7 |
| 20260906042015 | 21 | 22 | 3.2 | 12.9 | 0.00 | 0.00 | 0.00 | 87 | 1017.7 |
| 20260906041525 | 21 | 17 | 3.2 | 8.0 | 0.00 | 0.00 | 0.00 | 87 | 1017.7 |
| 20260906041008 | 21 | 55 | 1.6 | 12.9 | 0.00 | 0.00 | 0.00 | 87 | 1017.7 |
| 20260906040513 | 21 | 53 | 3.2 | 12.9 | 0.00 | 0.00 | 0.00 | 87 | 1017.7 |
| 20260906040022 | 21 | 43 | 1.6 | 8.0 | 0.00 | 0.00 | 0.00 | 87 | 1017.6 |
| 20260906035504 | 21 | 352 | 3.2 | 8.0 | 0.00 | 0.00 | 0.00 | 86 | 1017.5 |
| 20260906035014 | 21 | 39 | 1.6 | 14.5 | 0.00 | 0.00 | 0.00 | 86 | 1017.4 |
| 20260906034527 | 21 | 95 | 3.2 | 14.5 | 0.00 | 0.00 | 0.00 | 86 | 1017.5 |
| 20260906034015 | 21 | 30 | 3.2 | 14.5 | 0.00 | 0.00 | 0.00 | 86 | 1017.3 |
| 20260906033512 | 21 | 59 | 4.8 | 14.5 | 0.00 | 0.00 | 0.00 | 86 | 1017.1 |
| 20260906033012 | 21 | 38 | 4.8 | 12.9 | 0.00 | 0.00 | 0.00 | 86 | 1017.2 |
| 20260906032515 | 21 | 58 | 4.8 | 19.3 | 0.00 | 0.00 | 0.00 | 85 | 1017.1 |
| 20260906032009 | 21 | 87 | 6.4 | 19.3 | 0.00 | 0.00 | 0.00 | 86 | 1017.0 |
| 20260906031515 | 21 | 14 | 1.6 | 12.9 | 0.00 | 0.00 | 0.00 | 86 | 1016.9 |
| 20260906031013 | 21 | 15 | 3.2 | 12.9 | 0.00 | 0.00 | 0.00 | 85 | 1016.7 |
| 20260906030510 | 22 | 9 | 1.6 | 8.0 | 0.00 | 0.00 | 0.00 | 86 | 1016.7 |
| 20260906030034 | 22 | 107 | 3.2 | 8.0 | 0.00 | 0.00 | 0.00 | 85 | 1016.7 |
| 20260906025519 | 22 | 30 | 1.6 | 8.0 | 0.00 | 0.00 | 0.00 | 85 | 1016.9 |
| 20260906025006 | 22 | 26 | 0.0 | 9.7 | 0.00 | 0.00 | 0.00 | 85 | 1016.9 |
| 20260906024536 | 22 | 169 | 3.2 | 9.7 | 0.00 | 0.00 | 0.00 | 85 | 1016.8 |
| 20260906024012 | 22 | 103 | 0.0 | 8.0 | 0.00 | 0.00 | 0.00 | 86 | 1016.7 |
| 20260906023510 | 22 | 92 | 0.0 | 9.7 | 0.00 | 0.00 | 0.00 | 86 | 1016.6 |
| 20260906023030 | 22 | 116 | 1.6 | 11.3 | 0.00 | 0.00 | 0.00 | 86 | 1016.5 |
| 20260906022510 | 22 | 126 | 0.0 | 11.3 | 0.00 | 0.00 | 0.00 | 86 | 1016.5 |
| 20260906022016 | 22 | 34 | 1.6 | 6.4 | 0.00 | 0.00 | 0.00 | 86 | 1016.4 |
| 20260906021531 | 22 | 52 | 3.2 | 6.4 | 0.00 | 0.00 | 0.00 | 86 | 1016.3 |
| 20260906021007 | 22 | 44 | 1.6 | 6.4 | 0.00 | 0.00 | 0.00 | 86 | 1016.1 |
| 20260906020514 | 22 | 33 | 0.0 | 6.4 | 0.00 | 0.00 | 0.00 | 85 | 1016.1 |
| 20260906020024 | 23 | 67 | 1.6 | 6.4 | 0.00 | 0.00 | 0.00 | 85 | 1016.1 |
| 20260906015506 | 23 | 42 | 1.6 | 9.7 | 0.00 | 0.00 | 0.00 | 85 | 1016.1 |
| 20260906015013 | 23 | 76 | 3.2 | 9.7 | 0.00 | 0.00 | 0.00 | 85 | 1016.1 |
| 20260906014519 | 23 | 57 | 1.6 | 8.0 | 0.00 | 0.00 | 0.00 | 84 | 1016.1 |
| 20260906014018 | 23 | 60 | 1.6 | 8.0 | 0.00 | 0.00 | 0.00 | 84 | 1016.1 |
| 20260906013514 | 23 | 49 | 1.6 | 6.4 | 0.00 | 0.00 | 0.00 | 84 | 1016.1 |
| 20260906013017 | 23 | 5 | 1.6 | 8.0 | 0.00 | 0.00 | 0.00 | 84 | 1015.9 |
| 20260906012516 | 23 | 63 | 1.6 | 6.4 | 0.00 | 0.00 | 0.00 | 83 | 1015.8 |
| 20260906012010 | 23 | 21 | 1.6 | 9.7 | 0.00 | 0.00 | 0.00 | 83 | 1015.8 |
| 20260906011513 | 23 | 43 | 1.6 | 14.5 | 0.00 | 0.00 | 0.00 | 83 | 1015.9 |
| 20260906011016 | 23 | 37 | 1.6 | 14.5 | 0.00 | 0.00 | 0.00 | 82 | 1015.8 |
| 20260906010507 | 23 | 34 | 3.2 | 8.0 | 0.00 | 0.00 | 0.00 | 82 | 1015.8 |
| 20260906010037 | 23 | 32 | 3.2 | 8.0 | 0.00 | 0.00 | 0.00 | 82 | 1015.9 |
| 20260906005513 | 23 | 53 | 3.2 | 6.4 | 0.00 | 0.00 | 0.00 | 81 | 1016.0 |
| 20260906005010 | 23 | 42 | 3.2 | 8.0 | 0.00 | 0.00 | 0.00 | 81 | 1016.0 |
| 20260906004533 | 23 | 63 | 1.6 | 8.0 | 0.00 | 0.00 | 0.00 | 81 | 1015.9 |
| 20260906004012 | 23 | 34 | 1.6 | 8.0 | 0.00 | 0.00 | 0.00 | 81 | 1015.9 |
| 20260906003506 | 23 | 32 | 1.6 | 3.2 | 0.00 | 0.00 | 0.00 | 80 | 1015.8 |
| 20260906003028 | 23 | 348 | 0.0 | 3.2 | 0.00 | 0.00 | 0.00 | 80 | 1015.9 |
| 20260906002510 | 24 | 321 | 0.0 | 3.2 | 0.00 | 0.00 | 0.00 | 79 | 1015.9 |
| 20260906002017 | 24 | 9 | 0.0 | 3.2 | 0.00 | 0.00 | 0.00 | 79 | 1015.9 |
| 20260906001543 | 24 | 5 | 0.0 | 3.2 | 0.00 | 0.00 | 0.00 | 79 | 1016.0 |
| 20260906001008 | 24 | 352 | 0.0 | 3.2 | 0.00 | 0.00 | 0.00 | 79 | 1016.0 |
| 20260906000516 | 24 | 333 | 0.0 | 3.2 | 0.00 | 0.00 | 0.00 | 78 | 1016.0 |
| 20260906000027 | 24 | 34 | 1.6 | 3.2 | 0.00 | 0.00 | 0.00 | 78 | 1016.0 |
| 20260905235507 | 24 | 19 | 1.6 | 3.2 | 0.00 | 0.00 | 0.00 | 77 | 1016.1 |
| 20260905235016 | 25 | 33 | 1.6 | 6.4 | 0.00 | 0.00 | 0.00 | 77 | 1016.1 |
| 20260905234523 | 25 | 360 | 1.6 | 6.4 | 0.00 | 0.00 | 0.00 | 77 | 1016.1 |
| 20260905234014 | 25 | 34 | 1.6 | 6.4 | 0.00 | 0.00 | 0.00 | 76 | 1016.0 |
| 20260905233515 | 25 | 28 | 1.6 | 8.0 | 0.00 | 0.00 | 0.00 | 76 | 1016.1 |
| 20260905233023 | 25 | 35 | 1.6 | 8.0 | 0.00 | 0.00 | 0.00 | 75 | 1016.2 |
| 20260905232520 | 25 | 351 | 0.0 | 6.4 | 0.00 | 0.00 | 0.00 | 74 | 1016.2 |
| 20260905232013 | 26 | 13 | 1.6 | 8.0 | 0.00 | 0.00 | 0.00 | 73 | 1016.1 |
| 20260905231517 | 26 | 24 | 3.2 | 14.5 | 0.00 | 0.00 | 0.00 | 72 | 1016.1 |
| 20260905231019 | 26 | 34 | 4.8 | 14.5 | 0.00 | 0.00 | 0.00 | 71 | 1016.2 |
| 20260905230511 | 26 | 38 | 4.8 | 8.0 | 0.00 | 0.00 | 0.00 | 72 | 1016.1 |
| 20260905230037 | 26 | 40 | 4.8 | 14.5 | 0.00 | 0.00 | 0.00 | 73 | 1016.1 |
| 20260905225520 | 26 | 28 | 4.8 | 14.5 | 0.00 | 0.00 | 0.00 | 72 | 1016.1 |
| 20260905225008 | 26 | 61 | 6.4 | 14.5 | 0.00 | 0.00 | 0.00 | 73 | 1016.1 |
| 20260905224532 | 26 | 43 | 3.2 | 16.1 | 0.00 | 0.00 | 0.00 | 73 | 1016.1 |
| 20260905224012 | 26 | 322 | 4.8 | 16.1 | 0.00 | 0.00 | 0.00 | 73 | 1016.0 |
| 20260905223508 | 27 | 348 | 4.8 | 14.5 | 0.00 | 0.00 | 0.00 | 72 | 1016.0 |
| 20260905223045 | 27 | 46 | 6.4 | 14.5 | 0.00 | 0.00 | 0.00 | 72 | 1016.0 |
| 20260905222512 | 26 | 360 | 1.6 | 9.7 | 0.00 | 0.00 | 0.00 | 74 | 1016.0 |
| 20260905222017 | 26 | 11 | 1.6 | 12.9 | 0.00 | 0.00 | 0.00 | 74 | 1016.1 |
| 20260905221530 | 26 | 32 | 3.2 | 14.5 | 0.00 | 0.00 | 0.00 | 73 | 1015.9 |
| 20260905221011 | 26 | 39 | 4.8 | 14.5 | 0.00 | 0.00 | 0.00 | 74 | 1015.8 |
| 20260905220519 | 27 | 15 | 3.2 | 11.3 | 0.00 | 0.00 | 0.00 | 73 | 1015.8 |
| 20260905220030 | 27 | 9 | 4.8 | 11.3 | 0.00 | 0.00 | 0.00 | 72 | 1015.6 |
| 20260905215508 | 27 | 42 | 4.8 | 9.7 | 0.00 | 0.00 | 0.00 | 71 | 1015.6 |
| 20260905215016 | 27 | 338 | 4.8 | 11.3 | 0.00 | 0.00 | 0.00 | 71 | 1015.5 |
| 20260905214527 | 27 | 13 | 3.2 | 16.1 | 0.00 | 0.00 | 0.00 | 72 | 1015.6 |
| 20260905214017 | 27 | 68 | 4.8 | 16.1 | 0.00 | 0.00 | 0.00 | 72 | 1015.6 |
| 20260905213514 | 27 | 24 | 3.2 | 11.3 | 0.00 | 0.00 | 0.00 | 72 | 1015.6 |
| 20260905213023 | 27 | 40 | 3.2 | 9.7 | 0.00 | 0.00 | 0.00 | 73 | 1015.6 |
| 20260905212519 | 26 | 40 | 4.8 | 9.7 | 0.00 | 0.00 | 0.00 | 74 | 1015.7 |
| 20260905212017 | 26 | 314 | 1.6 | 8.0 | 0.00 | 0.00 | 0.00 | 76 | 1015.7 |
| 20260905211520 | 26 | 16 | 4.8 | 8.0 | 0.00 | 0.00 | 0.00 | 76 | 1015.8 |
| 20260905211018 | 26 | 72 | 3.2 | 9.7 | 0.00 | 0.00 | 0.00 | 77 | 1015.8 |
| 20260905210511 | 26 | 327 | 1.6 | 9.7 | 0.00 | 0.00 | 0.00 | 77 | 1015.8 |
| 20260905210045 | 25 | 76 | 3.2 | 9.7 | 0.00 | 0.00 | 0.00 | 77 | 1015.8 |
| 20260905205517 | 25 | 306 | 4.8 | 9.7 | 0.00 | 0.00 | 0.00 | 77 | 1015.9 |
| 20260905205011 | 25 | 342 | 3.2 | 9.7 | 0.00 | 0.00 | 0.00 | 78 | 1015.9 |
| 20260905204534 | 25 | 29 | 4.8 | 12.9 | 0.00 | 0.00 | 0.00 | 78 | 1015.9 |
| 20260905204016 | 25 | 5 | 4.8 | 12.9 | 0.00 | 0.00 | 0.00 | 78 | 1016.0 |
| 20260905203511 | 26 | 17 | 3.2 | 14.5 | 0.00 | 0.00 | 0.00 | 79 | 1016.0 |
| 20260905203032 | 25 | 5 | 6.4 | 14.5 | 0.00 | 0.00 | 0.00 | 78 | 1015.9 |
| 20260905202513 | 25 | 63 | 4.8 | 14.5 | 0.00 | 0.00 | 0.00 | 79 | 1015.8 |
| 20260905202017 | 25 | 14 | 3.2 | 14.5 | 0.00 | 0.00 | 0.00 | 78 | 1015.9 |
| 20260905201532 | 25 | 41 | 4.8 | 12.9 | 0.00 | 0.00 | 0.00 | 79 | 1016.0 |
| 20260905201011 | 25 | 39 | 4.8 | 14.5 | 0.00 | 0.00 | 0.00 | 78 | 1016.1 |
| 20260905200520 | 26 | 5 | 6.4 | 14.5 | 0.00 | 0.00 | 0.00 | 77 | 1016.1 |
| 20260905200039 | 26 | 312 | 4.8 | 12.9 | 0.00 | 0.00 | 0.00 | 77 | 1016.1 |
| 20260905195509 | 26 | 57 | 3.2 | 12.9 | 0.00 | 0.00 | 0.00 | 78 | 1016.1 |
| 20260905195015 | 26 | 323 | 4.8 | 12.9 | 0.00 | 0.00 | 0.00 | 78 | 1016.2 |
| 20260905194530 | 26 | 346 | 3.2 | 14.5 | 0.00 | 0.00 | 0.00 | 79 | 1016.1 |
| 20260905194018 | 25 | 291 | 1.6 | 14.5 | 0.00 | 0.00 | 0.00 | 79 | 1016.2 |
| 20260905193515 | 25 | 37 | 6.4 | 14.5 | 0.00 | 0.00 | 0.00 | 79 | 1016.2 |
| 20260905193027 | 26 | 60 | 3.2 | 16.1 | 0.00 | 0.00 | 0.00 | 79 | 1016.3 |
| 20260905192517 | 25 | 335 | 4.8 | 16.1 | 0.00 | 0.00 | 0.00 | 79 | 1016.2 |
| 20260905192015 | 26 | 46 | 4.8 | 9.7 | 0.00 | 0.00 | 0.00 | 79 | 1016.2 |
| 20260905191526 | 25 | 328 | 4.8 | 11.3 | 0.00 | 0.00 | 0.00 | 80 | 1016.2 |
| 20260905191017 | 25 | 360 | 3.2 | 16.1 | 0.00 | 0.00 | 0.00 | 80 | 1016.2 |
| 20260905190514 | 25 | 24 | 3.2 | 16.1 | 0.00 | 0.00 | 0.00 | 80 | 1016.2 |
| 20260905190034 | 25 | 53 | 3.2 | 14.5 | 0.00 | 0.00 | 0.00 | 79 | 1016.1 |
| 20260905185516 | 26 | 59 | 6.4 | 14.5 | 0.00 | 0.00 | 0.00 | 79 | 1016.1 |
| 20260905185011 | 26 | 42 | 4.8 | 16.1 | 0.00 | 0.00 | 0.00 | 79 | 1016.1 |
| 20260905184540 | 26 | 60 | 4.8 | 17.7 | 0.00 | 0.00 | 0.00 | 79 | 1016.1 |
| 20260905184013 | 26 | 10 | 8.0 | 17.7 | 0.00 | 0.00 | 0.00 | 79 | 1016.1 |
| 20260905183510 | 26 | 48 | 6.4 | 16.1 | 0.00 | 0.00 | 0.00 | 78 | 1016.1 |
| 20260905183039 | 26 | 50 | 4.8 | 12.9 | 0.00 | 0.00 | 0.00 | 79 | 1016.2 |
| 20260905182515 | 26 | 24 | 6.4 | 12.9 | 0.00 | 0.00 | 0.00 | 79 | 1016.2 |
| 20260905182017 | 26 | 351 | 4.8 | 19.3 | 0.00 | 0.00 | 0.00 | 79 | 1016.1 |
| 20260905181535 | 26 | 352 | 3.2 | 19.3 | 0.00 | 0.00 | 0.00 | 79 | 1016.2 |
| 20260905181012 | 26 | 53 | 4.8 | 17.7 | 0.00 | 0.00 | 0.00 | 79 | 1016.2 |
| 20260905180519 | 26 | 24 | 8.0 | 14.5 | 0.00 | 0.00 | 0.00 | 78 | 1016.2 |
| 20260905180039 | 27 | 337 | 4.8 | 11.3 | 0.00 | 0.00 | 0.00 | 78 | 1016.2 |
| 20260905175516 | 27 | 24 | 3.2 | 14.5 | 0.00 | 0.00 | 0.00 | 79 | 1016.2 |
| 20260905175019 | 27 | 17 | 4.8 | 14.5 | 0.00 | 0.00 | 0.00 | 79 | 1016.3 |
| 20260905174530 | 27 | 338 | 6.4 | 14.5 | 0.00 | 0.00 | 0.00 | 79 | 1016.4 |
| 20260905174015 | 27 | 72 | 3.2 | 12.9 | 0.00 | 0.00 | 0.00 | 79 | 1016.3 |
| 20260905173516 | 27 | 22 | 4.8 | 14.5 | 0.00 | 0.00 | 0.00 | 79 | 1016.3 |
| 20260905173040 | 27 | 33 | 6.4 | 14.5 | 0.00 | 0.00 | 0.00 | 78 | 1016.3 |
| 20260905172515 | 27 | 360 | 8.0 | 17.7 | 0.00 | 0.00 | 0.00 | 77 | 1016.3 |
| 20260905172015 | 27 | 76 | 6.4 | 17.7 | 0.00 | 0.00 | 0.00 | 77 | 1016.2 |
| 20260905171526 | 27 | 15 | 6.4 | 16.1 | 0.00 | 0.00 | 0.00 | 77 | 1016.3 |
| 20260905171007 | 27 | 317 | 8.0 | 16.1 | 0.00 | 0.00 | 0.00 | 77 | 1016.1 |
| 20260905170514 | 27 | 5 | 3.2 | 14.5 | 0.00 | 0.00 | 0.00 | 78 | 1016.1 |
| 20260905170023 | 27 | 42 | 4.8 | 12.9 | 0.00 | 0.00 | 0.00 | 77 | 1016.2 |
| 20260905165516 | 27 | 51 | 6.4 | 9.7 | 0.00 | 0.00 | 0.00 | 76 | 1016.1 |
| 20260905165015 | 27 | 340 | 3.2 | 16.1 | 0.00 | 0.00 | 0.00 | 77 | 1016.2 |
| 20260905164521 | 27 | 17 | 6.4 | 16.1 | 0.00 | 0.00 | 0.00 | 77 | 1016.1 |
| 20260905164014 | 27 | 25 | 6.4 | 12.9 | 0.00 | 0.00 | 0.00 | 78 | 1016.1 |
| 20260905163515 | 27 | 344 | 4.8 | 19.3 | 0.00 | 0.00 | 0.00 | 79 | 1016.2 |
| 20260905163016 | 27 | 324 | 6.4 | 19.3 | 0.00 | 0.00 | 0.00 | 79 | 1016.2 |
| 20260905162515 | 27 | 24 | 3.2 | 9.7 | 0.00 | 0.00 | 0.00 | 80 | 1016.1 |
| 20260905162011 | 27 | 349 | 4.8 | 12.9 | 0.00 | 0.00 | 0.00 | 80 | 1016.1 |
| 20260905161534 | 27 | 71 | 6.4 | 14.5 | 0.00 | 0.00 | 0.00 | 79 | 1016.1 |
| 20260905161015 | 27 | 41 | 4.8 | 14.5 | 0.00 | 0.00 | 0.00 | 78 | 1016.2 |
| 20260905160508 | 27 | 22 | 6.4 | 12.9 | 0.00 | 0.00 | 0.00 | 80 | 1016.1 |
| 20260905160029 | 27 | 54 | 4.8 | 11.3 | 0.00 | 0.00 | 0.00 | 80 | 1016.1 |
| 20260905155514 | 26 | 22 | 4.8 | 12.9 | 0.00 | 0.00 | 0.00 | 82 | 1016.1 |
| 20260905155006 | 26 | 42 | 4.8 | 14.5 | 0.00 | 0.00 | 0.00 | 83 | 1016.0 |
| 20260905154531 | 25 | 20 | 4.8 | 14.5 | 0.00 | 0.00 | 0.00 | 84 | 1016.1 |
| 20260905154012 | 25 | 360 | 4.8 | 9.7 | 0.00 | 0.00 | 0.00 | 85 | 1016.1 |
| 20260905153518 | 25 | 51 | 3.2 | 12.9 | 0.00 | 0.00 | 0.00 | 86 | 1016.2 |
| 20260905153036 | 24 | 44 | 4.8 | 14.5 | 0.00 | 0.00 | 0.00 | 85 | 1016.2 |
| 20260905152511 | 24 | 18 | 6.4 | 14.5 | 0.00 | 0.00 | 0.00 | 86 | 1016.2 |
| 20260905152016 | 24 | 29 | 4.8 | 17.7 | 0.00 | 0.00 | 0.00 | 86 | 1016.2 |
| 20260905151527 | 24 | 29 | 3.2 | 17.7 | 0.00 | 0.00 | 0.00 | 87 | 1016.2 |
| 20260905151008 | 24 | 17 | 4.8 | 16.1 | 0.00 | 0.00 | 0.00 | 86 | 1016.1 |
| 20260905150519 | 24 | 22 | 6.4 | 16.1 | 0.00 | 0.00 | 0.00 | 86 | 1016.1 |
| 20260905150027 | 24 | 307 | 1.6 | 16.1 | 0.00 | 0.00 | 0.00 | 87 | 1015.9 |
| 20260905145518 | 24 | 19 | 6.4 | 16.1 | 0.00 | 0.00 | 0.00 | 87 | 1015.8 |
| 20260905145016 | 24 | 69 | 3.2 | 17.7 | 0.00 | 0.00 | 0.00 | 88 | 1015.7 |
| 20260905144525 | 23 | 5 | 9.7 | 17.7 | 0.00 | 0.00 | 0.00 | 88 | 1015.7 |
| 20260905144016 | 23 | 78 | 4.8 | 14.5 | 0.00 | 0.00 | 0.00 | 89 | 1015.5 |
| 20260905143514 | 23 | 64 | 1.6 | 14.5 | 0.00 | 0.00 | 0.00 | 89 | 1015.5 |
| 20260905143030 | 23 | 360 | 3.2 | 14.5 | 0.00 | 0.00 | 0.00 | 89 | 1015.6 |